Showing default

SURCAL 159, 2872

Orbit data source: Space-Track

SURCAL 159, 2872 is a payload satellite owned by NRL (US) in LEO that was launched on Wed, 31 May 1967 UTC via a THOR SLV-2 AGENA D launch vehicle from the Air Force Western Test Range (AFWTR). Payload-class satellites include a variety of spacecraft equipped with specific instruments for various scientific and technological missions. These include communications satellites like Starlink; space stations such as the ISS; scientific satellites like the Hubble; Earth observation satellites from companies like Planet Labs, Umbra, and HawkEye 360; GPS; miniature CubeSats for education and research; and military/defense satellites.

Loading next visibility...
Identifier
2872, 1967-053F
Orbit
LEO
Country
Flag of USUS
Related business
Manufacturer
NRL
Mission
Operational Defense Calibration
Bus & Motor
NRL 14"?, Unknown motor
Mass
3 kg wet, 3 kg dry
Launch date (UTC)
1967-05-31 (58 years ago)
Launch vehicle
THOR SLV-2 AGENA D
Launch site
Air Force Western Test Range (AFWTR)
Object type
Payload
Rocket body
Debris
Shape & HBR
Sphere, 0.2 m
Radar Cross Section
0.126 m², Medium (>0.1 m² and < 1m²)

Expand to show TLE details & history
Last TLE update: 21 hours ago

TLE from 21 hours ago
0 SURCAL 159
1 02872U 67053F   25242.13325025  .00000097  00000-0  10350-3 0  9994
2 02872  69.9721 267.5198 0004847 158.3847 201.7466 13.99495017969482
Epoch: 2025-08-30T03:11Z
TLE epoch observation values (Epoch: 2025-08-30T03:11:52.821Z)
Latitude
-0.00001°
Longitude
-119.02221°
Altitude
901.134 km
Speed
7.4 km/s
True Right ascension
17h 50m 04s
True Declination
0° 00' 00"
Sunlit
Object was in daylight at epoch
Visualization orbit readout
Latitude
Unknown
Longitude
Unknown
Altitude
Unknown
Speed
Unknown
Apparent Right ascension
Unknown
Apparent Declination
Unknown
Sunlit
N/A
Visualization observer readout
Local Sidereal Time
15:52:19
Azimuth
Unknown
Elevation
Unknown
Doppler factor
Unknown
Orbital elements
Apogee altitude
897.112 km
Perigee altitude
890.062 km
Semi-major axis
7,271.724 km
Eccentricity
0.00048
Inclination
69.9721°
RAAN
267.5198°
Arg. of periapsis
158.3847°
True anomaly
201.72603°
Mean anomaly
201.7466°
Eccentric anomaly
201.73632°
Mean motion
3.50015 °/min
Orbital period
102.85 mins
BSTAR
0.0001035
Loading maneuver chart data...
Computing Atmospheric mass density...
Loading historical data...
Loading historical data...
Loading historical data...
Loading historical data...
Loading historical data...
Loading historical data...
Loading historical data...

Documentation

Showing up to 5 results
|